#timestamp,LO_Frequency,Hit,StdDev 
1571850015.5,286047004.0,N
1571850035.3,286047001.6,N
1571850055.2,286047004.1,N
1571850075.9,286047001.8,N
1571850095.7,286047001.9,N
1571850115.6,286047002.3,N
1571850135.4,286047002.2,N
1571850155.2,286047001.7,N
1571850175.1,286047002.2,N
1571850176.0,286047002.2,N
1571850195.8,286047002.2,N
1571850215.7,286047001.4,N
1571850235.5,286047001.8,N
1571850255.3,286046999.7,N
1571850275.2,286047000.2,N
1571850295.0,286047000.0,N
1571850295.9,286047000.0,N
1571850315.8,286047000.1,N
1571850335.6,286047002.1,N
1571850355.4,286047002.5,N
1571850375.3,286047001.9,N
1571850395.1,286047002.6,N
1571850415.8,286047001.5,N
1571850435.7,286047002.8,N
1571850455.5,286047000.8,N
1571850475.4,286047002.5,N
1571850495.2,286047001.6,N
1571850515.0,286047002.8,N
1571850515.9,286047002.8,N
1571850535.8,286047001.6,N
1571850555.6,286046999.8,N
1571850575.4,286047002.3,N
1571850595.3,286047003.9,Y
1571850615.1,286047000.2,P
1571850635.9,286047000.3,N
1571850655.7,286047000.5,N
1571850675.5,286046999.9,N
1571850695.4,286047000.1,N
1571850715.2,286047002.7,Y
1571850735.0,286047000.1,P
1571850735.9,286047000.1,N
1571850755.8,286047001.9,P
1571850775.6,286047000.0,N
1571850795.5,286047002.7,Y
1571850815.3,286047000.2,P
1571850835.1,286047002.6,P
1571850855.9,286046999.8,N
1571850875.7,286046999.7,N
1571850895.5,286047002.6,N
1571850915.4,286047001.1,N
1571850935.2,286046998.6,N
1571850955.1,286046998.4,N
1571850956.0,286046998.4,N
1571850975.8,286046999.5,N
1571850995.6,286046999.5,N
1571851015.5,286046997.0,N
1571851035.3,286046996.6,N
1571851055.1,286046999.1,N
1571851075.9,286046998.5,N
1571851095.7,286046998.2,N
1571851115.6,286047000.8,N
1571851135.4,286047000.4,N
1571851155.2,286047000.2,N
1571851175.1,286047000.0,N
1571851176.0,286047000.0,N
1571851195.8,286047000.8,N
1571851215.6,286047000.0,N
1571851235.5,286046999.8,N
1571851255.3,286047000.6,N
1571851275.2,286046999.7,N
1571851295.9,286046999.7,N
1571851315.7,286046999.8,N
1571851335.6,286047002.3,N
1571851355.4,286047002.7,N
1571851375.2,286047002.1,N
1571851395.1,286047003.9,N
1571851396.0,286047003.9,N
1571851415.8,286047004.0,N
1571851435.7,286047004.3,N
1571851455.5,286047004.1,N
1571851475.3,286047001.9,N
1571851495.2,286047001.7,N
1571851515.0,286047001.5,N
1571851515.9,286047001.5,N
1571851535.8,286047001.5,N
1571851555.6,286047000.4,N
1571851575.4,286047000.2,N
1571851595.3,286046999.8,N
1571851615.1,286047002.3,N
1571851635.8,286047000.2,N
1571851655.7,286046999.7,N
1571851675.5,286047000.4,N
1571851695.4,286047000.9,N
1571851715.2,286047001.0,N
1571851735.0,286047000.3,N
1571851735.9,286047000.3,N
1571851755.8,286047000.3,N
1571851775.6,286046999.7,N
1571851795.4,286047002.4,N
1571851815.3,286047000.1,N
1571851835.1,286047002.0,N
1571851855.9,286046999.9,N
1571851875.7,286047000.2,N
1571851895.5,286046999.9,N
1571851915.4,286047000.1,N
1571851935.2,286046999.9,N
1571851955.0,286047002.2,N
1571851955.9,286047002.2,N
1571851975.8,286047002.8,N
1571851995.6,286047002.6,N
1571852015.5,286047002.3,N
1571852035.3,286047001.7,N
1571852055.1,286047001.6,N
1571852075.9,286047002.2,N
1571852095.7,286047001.6,N
1571852115.5,286047002.6,N
1571852135.4,286047002.4,N
1571852155.2,286047001.7,N
1571852175.1,286047003.4,Y
1571852176.0,286047003.4,P
1571852195.8,286047003.9,P
1571852215.6,286047002.9,N
1571852235.5,286047004.0,Y
1571852255.3,286047001.1,P
1571852275.1,286047001.1,N
1571852295.9,286047001.1,N
1571852315.7,286046998.6,N
1571852335.6,286046999.3,N
1571852355.4,286046996.9,N
1571852375.2,286046997.0,N
1571852395.1,286046997.3,N
1571852396.0,286046997.3,N
1571852415.8,286046996.6,N
1571852435.7,286046996.6,N
1571852455.5,286046999.4,N
1571852475.3,286046999.6,N
1571852495.2,286046998.1,N
1571852515.0,286046999.0,N
1571852515.9,286046999.0,N
1571852535.7,286046996.7,N
1571852555.6,286046999.3,N
1571852575.4,286046999.3,N
1571852595.3,286046997.0,N
1571852615.1,286046996.6,N
1571852616.0,286046996.6,N
1571852635.8,286047001.1,N
1571852655.7,286046998.8,N
1571852675.5,286047001.0,N
1571852695.3,286046999.9,N
1571852715.2,286047000.1,N
1571852735.0,286046999.9,N
1571852735.9,286046999.9,N
1571852755.8,286047000.3,N
1571852775.6,286046998.2,N
1571852795.4,286046999.0,N
1571852815.3,286046999.4,N
1571852835.1,286046999.4,N
1571852855.8,286046999.5,N
1571852875.7,286046998.3,N
1571852895.5,286047002.6,N
1571852915.4,286047002.1,N
1571852935.2,286047002.2,N
1571852955.0,286047001.6,N
1571852955.9,286047001.6,N
1571852975.8,286047000.1,N
1571852995.6,286046999.9,N
1571853015.4,286046999.7,N
1571853035.3,286047002.8,N
1571853055.1,286047000.4,N
1571853075.9,286047000.7,N
1571853095.7,286046999.7,N
1571853115.5,286047000.2,N
1571853135.4,286046998.5,N
1571853155.2,286046998.3,N
1571853175.0,286046998.2,N
1571853175.9,286046998.2,N
1571853195.8,286046999.9,N
1571853215.6,286047001.4,N
1571853235.4,286046999.7,N
1571853255.3,286046999.8,N
1571853275.1,286047000.8,N
1571853295.9,286046998.6,N
1571853315.7,286046999.4,N
1571853335.5,286046999.0,N
1571853355.4,286046998.2,N
1571853375.2,286047000.9,N
1571853395.0,286047000.1,N
1571853395.9,286047000.1,N
1571853415.8,286047002.2,N
1571853435.6,286047001.8,N
1571853455.5,286047001.4,N
1571853475.3,286047001.8,N
1571853495.1,286047001.9,N
1571853515.9,286047001.9,N
1571853535.7,286047001.6,N
1571853555.5,286047000.0,N
1571853575.4,286047002.5,N
1571853595.2,286047002.7,N
